Location: Kershaw
(34.5481°N, 80.5823°W)
Time: 16:02:52
(UTC+00:00)

Vanguard 1 Rocket - Pass Details

Date: 03 October 2022
Orbit: 650 x 4225 km, 34.3° (Epoch: 08 December)

Event Time Altitude Azimuth Distance (km) Brightness Sun altitude
Rises 07:52:05 0° 278° (W) 4,314 - -41.9°
Reaches altitude 10° 07:56:51 10° 256° (WSW) 2,767 - -41.0°
Maximum altitude 08:00:06 15° 224° (SW) 2,128 - -40.4°
Drops below altitude 10° 08:02:49 10° 190° (S) 2,218 - -39.9°
Sets 08:05:56 0° 164° (SSE) 2,978 - -39.4°
